STARLINK-32493, 62025

Orbit data source: Space-Track

STARLINK-32493, 62025 is a payload satellite owned by SpaceX/Seattle (US) in LEO that was launched on Mon, 18 Nov 2024 UTC via an FALCON 9 launch vehicle from the Air Force Western Test Range (AFWTR). Payloads include a variety of satellites, spacecraft, and rockets equipped with specific instruments for various scientific and technological missions. These include communications satellites like Starlink; space stations such as the ISS; scientific satellites like the Hubble; Earth observation satellites from companies like Planet Labs, Umbra, and HawkEye 360; GPS; miniature CubeSats for education and research; and military/defense satellites.

Loading next visibility...
STARLINK-32493 details
Identifier
62025, 2024-213T
Orbit
LEO
Last TLE update1 day ago
Origin
Flag of USSpaceX/Seattle (US)
ManufacturerSpaceX/Seattle
MissionOperational spacecraft
Bus & MotorSTARLINK V2M, Unknown motor
Mass730 kg wet, ~700 kg dry
Launch date (UTC)
2024-11-18 (4 weeks ago)
Launch vehicle
FALCON 9
Launch site
Air Force Western Test Range (AFWTR)
Object type
Payload
Rocket body
Debris
Shape & HBRUnknown
Radar Cross SectionLarge (>1 m²)

Expand to show TLE details & history

TLE from 1 day ago
0 STARLINK-32493
1 62025U 24213T   24347.91667824  .00008899  00000-0  16784-3 0  9993
2 62025  53.1599 113.4913 0000977  80.8226 109.8086 15.49313902  5150
Epoch: 2024-12-12T22:00Z
Definitive object data (Epoch: 2024-12-12T22:00:00.999Z)
Latitude-8.63019°
Longitude-112.11042°
Altitude421.385 km
Speed7.659 km/s
True Right ascension19h 59m 56s
True Declination-8° 34' 36"
Sunlit
Object was in daylight at TLE epoch
Visualization TLE readout
Latitude39.05568°
Longitude-160.67905°
Altitude421.588 km
Speed7.664 km/s
Apparent Right ascension13h 07m 48s
Apparent Declination2° 01' 46"
Sunlit
Object is in daylight
Visualization observer readout
Local Sidereal Time21:02:05
Azimuth290.826° WNW
Elevation-20.112°
Doppler factor1
Orbital elements
Apogee altitude419.655 km
Perigee altitude418.326 km
Semi-major axis6,797.127 km
Eccentricity0.0000977
Inclination53.1599°
RAAN113.4913°
Arg. of periapsis80.8226°
True anomaly109.81913°
Mean anomaly109.8086°
Eccentric anomaly109.81387°
Mean motion3.87307 °/min
BSTAR0.00016784
Orbital period92.95 mins
Loading maneuver chart data...
Loading historical data...
Loading historical data...
Loading historical data...
Loading historical data...
Loading historical data...
Loading historical data...
Loading historical data...

STARLINK-32493 Visibility forecast

Observer location: undefined°, undefined

Span
Click to sort rows by Start time (UTC) header in descending order
Start Az.
Max El. time (UTC)
Max El. Az.
Max El.
End time (UTC)
End Az.
5 mins2024-12-14 10:30:10.696Z200.578° SSW2024-12-14 10:33:10.696Z113.324° SE30.954°2024-12-14 10:35:10.696Z69.058° E
4 mins2024-12-14 12:08:10.696Z295.265° NW2024-12-14 12:09:10.696Z321.306° NNW22.201°2024-12-14 12:12:10.696Z27.377° NE
5 mins2024-12-14 17:00:10.696Z331.663° NNW2024-12-14 17:02:10.696Z15.983° NNE27.449°2024-12-14 17:05:10.696Z94.752° ESE
|